Multibeam Report for KM1409


Ship Name: Kilo Moana
Chief Scientist: Wilson, Samuel
University of Hawaii
Source Organization: UNOLS R2R
Start Date: 2014-03-11
End Date: 2014-03-25


View ISO Metadata

Visit the full NCEI Bathymetry Viewer


Multibeam Bathymetry

Cruise Details

Project: C-MORE 2014, Leg 1
Instrument: Kongsberg EM122

Data Quality

Number of Files: 168
Number of Records: 230806
BATHYMETRY DATA Quantity Percentage
Number of Beams 97569440 100%
Number of Good Beams 93143354 95.46%
Number of Zero Beams 15 0.0%
Number of Flagged Beams 4426071 4.54%

Navigation Totals

Total Time: 135.4205 hours
Total Track Length: 1344.049 km
Average Speed: 9.925 km/hr (5.3591 knots)

Cruise Bounds

Northern Extent: 22.930723
Southern Extent: 21.223656
Western Extent: -159.86871
Eastern Extent: -157.86525

Limits

Minimum Sonar Depth 4.0185 Maximum Sonar Depth 10.7005
Minimum Altitude 39.4547 Maximum Altitude 5904.5317
Minimum Depth 25.1928 Maximum Depth 6065.2842

File Information

Full Resolution Bathymetry as collected (raw): 165

Files File Size Description
0000_20140311_232153_KM122.all.mb58.gz 204.73MB Kongsberg multibeam vendor format
0001_20140312_002153_KM122.all.mb58.gz 318.31MB Kongsberg multibeam vendor format
0002_20140312_012153_KM122.all.mb58.gz 361.15MB Kongsberg multibeam vendor format
0003_20140312_022153_KM122.all.mb58.gz 172.13MB Kongsberg multibeam vendor format
0004_20140312_032154_KM122.all.mb58.gz 160.11MB Kongsberg multibeam vendor format
0005_20140312_042155_KM122.all.mb58.gz 94.43MB Kongsberg multibeam vendor format
0006_20140312_052201_KM122.all.mb58.gz 78.12MB Kongsberg multibeam vendor format
0007_20140312_062200_KM122.all.mb58.gz 90.82MB Kongsberg multibeam vendor format
0008_20140312_072153_KM122.all.mb58.gz 223.55MB Kongsberg multibeam vendor format
0009_20140312_082154_KM122.all.mb58.gz 127.44MB Kongsberg multibeam vendor format
0010_20140312_092154_KM122.all.mb58.gz 87.51MB Kongsberg multibeam vendor format
0011_20140312_102159_KM122.all.mb58.gz 73.51MB Kongsberg multibeam vendor format
0012_20140312_112204_KM122.all.mb58.gz 70.69MB Kongsberg multibeam vendor format
0013_20140312_122202_KM122.all.mb58.gz 70.51MB Kongsberg multibeam vendor format
0014_20140312_132155_KM122.all.mb58.gz 71.07MB Kongsberg multibeam vendor format
0015_20140312_142205_KM122.all.mb58.gz 71.17MB Kongsberg multibeam vendor format
0016_20140312_152208_KM122.all.mb58.gz 71.17MB Kongsberg multibeam vendor format
0017_20140312_162208_KM122.all.mb58.gz 70.88MB Kongsberg multibeam vendor format
0018_20140312_172201_KM122.all.mb58.gz 70.93MB Kongsberg multibeam vendor format
0019_20140312_182200_KM122.all.mb58.gz 70.74MB Kongsberg multibeam vendor format
0020_20140312_192158_KM122.all.mb58.gz 71.09MB Kongsberg multibeam vendor format
0021_20140312_202209_KM122.all.mb58.gz 70.69MB Kongsberg multibeam vendor format
0022_20140312_212200_KM122.all.mb58.gz 9.26MB Kongsberg multibeam vendor format
0023_20140317_200123_KM122.all.mb58.gz 70.53MB Kongsberg multibeam vendor format
0024_20140317_210127_KM122.all.mb58.gz 70.55MB Kongsberg multibeam vendor format
0025_20140317_220130_KM122.all.mb58.gz 70.51MB Kongsberg multibeam vendor format
0026_20140317_230116_KM122.all.mb58.gz 70.50MB Kongsberg multibeam vendor format
0027_20140318_000116_KM122.all.mb58.gz 70.59MB Kongsberg multibeam vendor format
0028_20140318_010127_KM122.all.mb58.gz 70.49MB Kongsberg multibeam vendor format
0029_20140318_020129_KM122.all.mb58.gz 70.36MB Kongsberg multibeam vendor format
0030_20140318_030118_KM122.all.mb58.gz 70.97MB Kongsberg multibeam vendor format
0031_20140318_040130_KM122.all.mb58.gz 70.49MB Kongsberg multibeam vendor format
0032_20140318_050116_KM122.all.mb58.gz 70.98MB Kongsberg multibeam vendor format
0033_20140318_060127_KM122.all.mb58.gz 70.66MB Kongsberg multibeam vendor format
0034_20140318_070122_KM122.all.mb58.gz 70.93MB Kongsberg multibeam vendor format
0035_20140318_080127_KM122.all.mb58.gz 70.97MB Kongsberg multibeam vendor format
0036_20140318_090131_KM122.all.mb58.gz 70.70MB Kongsberg multibeam vendor format
0037_20140318_100129_KM122.all.mb58.gz 70.90MB Kongsberg multibeam vendor format
0038_20140318_110126_KM122.all.mb58.gz 70.37MB Kongsberg multibeam vendor format
0039_20140318_120124_KM122.all.mb58.gz 69.90MB Kongsberg multibeam vendor format
0040_20140318_130116_KM122.all.mb58.gz 70.06MB Kongsberg multibeam vendor format
0041_20140318_140131_KM122.all.mb58.gz 70.58MB Kongsberg multibeam vendor format
0042_20140318_150123_KM122.all.mb58.gz 69.87MB Kongsberg multibeam vendor format
0043_20140318_160119_KM122.all.mb58.gz 70.30MB Kongsberg multibeam vendor format
0044_20140318_170117_KM122.all.mb58.gz 70.49MB Kongsberg multibeam vendor format
0045_20140318_180124_KM122.all.mb58.gz 70.78MB Kongsberg multibeam vendor format
0046_20140318_190131_KM122.all.mb58.gz 70.84MB Kongsberg multibeam vendor format
0047_20140318_200126_KM122.all.mb58.gz 70.90MB Kongsberg multibeam vendor format
0048_20140318_210121_KM122.all.mb58.gz 71.55MB Kongsberg multibeam vendor format
0049_20140318_220126_KM122.all.mb58.gz 71.42MB Kongsberg multibeam vendor format
0050_20140318_230119_KM122.all.mb58.gz 71.71MB Kongsberg multibeam vendor format
0051_20140319_000121_KM122.all.mb58.gz 74.14MB Kongsberg multibeam vendor format
0052_20140319_010121_KM122.all.mb58.gz 108.33MB Kongsberg multibeam vendor format
0053_20140319_020116_KM122.all.mb58.gz 225.06MB Kongsberg multibeam vendor format
0054_20140319_030117_KM122.all.mb58.gz 265.72MB Kongsberg multibeam vendor format
0055_20140319_040116_KM122.all.mb58.gz 237.29MB Kongsberg multibeam vendor format
0056_20140319_050116_KM122.all.mb58.gz 123.45MB Kongsberg multibeam vendor format
0057_20140319_060122_KM122.all.mb58.gz 8.85MB Kongsberg multibeam vendor format
0058_20140324_063939_KM122.all.mb58.gz 25.32MB Kongsberg multibeam vendor format
0059_20140324_070131_KM122.all.mb58.gz 70.31MB Kongsberg multibeam vendor format
0060_20140324_080127_KM122.all.mb58.gz 71.21MB Kongsberg multibeam vendor format
0061_20140324_090125_KM122.all.mb58.gz 72.34MB Kongsberg multibeam vendor format
0062_20140324_100123_KM122.all.mb58.gz 73.42MB Kongsberg multibeam vendor format
0063_20140324_110121_KM122.all.mb58.gz 74.63MB Kongsberg multibeam vendor format
0064_20140324_120123_KM122.all.mb58.gz 74.98MB Kongsberg multibeam vendor format
0065_20140324_130123_KM122.all.mb58.gz 74.69MB Kongsberg multibeam vendor format
0066_20140324_140130_KM122.all.mb58.gz 73.61MB Kongsberg multibeam vendor format
0067_20140324_150130_KM122.all.mb58.gz 73.60MB Kongsberg multibeam vendor format
0068_20140324_160128_KM122.all.mb58.gz 73.81MB Kongsberg multibeam vendor format
0069_20140324_170132_KM122.all.mb58.gz 82.37MB Kongsberg multibeam vendor format
0070_20140324_180124_KM122.all.mb58.gz 148.29MB Kongsberg multibeam vendor format
0071_20140324_190121_KM122.all.mb58.gz 208.47MB Kongsberg multibeam vendor format
0072_20140324_200120_KM122.all.mb58.gz 164.89MB Kongsberg multibeam vendor format
0073_20140324_210120_KM122.all.mb58.gz 138.33MB Kongsberg multibeam vendor format
0074_20140324_220121_KM122.all.mb58.gz 134.40MB Kongsberg multibeam vendor format
0075_20140324_230122_KM122.all.mb58.gz 99.26MB Kongsberg multibeam vendor format
0076_20140325_000126_KM122.all.mb58.gz 95.95MB Kongsberg multibeam vendor format
0077_20140325_010126_KM122.all.mb58.gz 91.66MB Kongsberg multibeam vendor format
0078_20140325_020121_KM122.all.mb58.gz 77.37MB Kongsberg multibeam vendor format
0079_20140325_030125_KM122.all.mb58.gz 73.99MB Kongsberg multibeam vendor format
0080_20140325_040125_KM122.all.mb58.gz 72.23MB Kongsberg multibeam vendor format
0081_20140325_050121_KM122.all.mb58.gz 71.56MB Kongsberg multibeam vendor format
0082_20140325_060123_KM122.all.mb58.gz 70.97MB Kongsberg multibeam vendor format
0083_20140325_070122_KM122.all.mb58.gz 70.93MB Kongsberg multibeam vendor format
0084_20140325_080121_KM122.all.mb58.gz 75.99MB Kongsberg multibeam vendor format
0085_20140325_090127_KM122.all.mb58.gz 81.39MB Kongsberg multibeam vendor format
0086_20140325_100129_KM122.all.mb58.gz 89.83MB Kongsberg multibeam vendor format
0087_20140325_110123_KM122.all.mb58.gz 80.87MB Kongsberg multibeam vendor format
0088_20140325_120127_KM122.all.mb58.gz 112.49MB Kongsberg multibeam vendor format
0089_20140325_130121_KM122.all.mb58.gz 167.15MB Kongsberg multibeam vendor format
0090_20140325_140121_KM122.all.mb58.gz 163.85MB Kongsberg multibeam vendor format
0091_20140325_150123_KM122.all.mb58.gz 157.49MB Kongsberg multibeam vendor format
0092_20140325_160121_KM122.all.mb58.gz 19.04MB Kongsberg multibeam vendor format
9999.all.mb58.gz 47.84MB Kongsberg multibeam vendor format
9999_140313075418_tmp.all.mb58.gz 2.8KB Kongsberg multibeam vendor format
9999_140313085416_tmp.all.mb58.gz 70.96MB Kongsberg multibeam vendor format
9999_140313095417_tmp.all.mb58.gz 71.10MB Kongsberg multibeam vendor format
9999_140313105404_tmp.all.mb58.gz 70.61MB Kongsberg multibeam vendor format
9999_140313115407_tmp.all.mb58.gz 70.85MB Kongsberg multibeam vendor format
9999_140313125411_tmp.all.mb58.gz 70.80MB Kongsberg multibeam vendor format
9999_140313135413_tmp.all.mb58.gz 70.79MB Kongsberg multibeam vendor format
9999_140313145414_tmp.all.mb58.gz 70.76MB Kongsberg multibeam vendor format
9999_140313155415_tmp.all.mb58.gz 70.78MB Kongsberg multibeam vendor format
9999_140313165415_tmp.all.mb58.gz 70.94MB Kongsberg multibeam vendor format
9999_140313175404_tmp.all.mb58.gz 70.64MB Kongsberg multibeam vendor format
9999_140313185402_tmp.all.mb58.gz 70.77MB Kongsberg multibeam vendor format
9999_140313195409_tmp.all.mb58.gz 71.12MB Kongsberg multibeam vendor format
9999_140313205414_tmp.all.mb58.gz 71.33MB Kongsberg multibeam vendor format
9999_140313215404_tmp.all.mb58.gz 70.68MB Kongsberg multibeam vendor format
9999_140313225403_tmp.all.mb58.gz 70.75MB Kongsberg multibeam vendor format
9999_140313235407_tmp.all.mb58.gz 70.78MB Kongsberg multibeam vendor format
9999_140314005413_tmp.all.mb58.gz 70.92MB Kongsberg multibeam vendor format
9999_140314015402_tmp.all.mb58.gz 70.63MB Kongsberg multibeam vendor format
9999_140314025404_tmp.all.mb58.gz 70.87MB Kongsberg multibeam vendor format
9999_140314035412_tmp.all.mb58.gz 70.93MB Kongsberg multibeam vendor format
9999_140314045409_tmp.all.mb58.gz 71.12MB Kongsberg multibeam vendor format
9999_140314055416_tmp.all.mb58.gz 70.91MB Kongsberg multibeam vendor format
9999_140314065416_tmp.all.mb58.gz 70.73MB Kongsberg multibeam vendor format
9999_140314075411_tmp.all.mb58.gz 70.62MB Kongsberg multibeam vendor format
9999_140314085037_tmp.all.mb58.gz 62.24MB Kongsberg multibeam vendor format
0000_20140311_232150_KM710.all.mb58.gz 52.88MB Kongsberg multibeam vendor format
0001_20140311_235149_KM710.all.mb58.gz 131.62MB Kongsberg multibeam vendor format
0002_20140312_002149_KM710.all.mb58.gz 162.11MB Kongsberg multibeam vendor format
0003_20140312_005148_KM710.all.mb58.gz 211.08MB Kongsberg multibeam vendor format
0004_20140312_012148_KM710.all.mb58.gz 187.15MB Kongsberg multibeam vendor format
0005_20140312_015148_KM710.all.mb58.gz 180.53MB Kongsberg multibeam vendor format
0006_20140312_022149_KM710.all.mb58.gz 66.22MB Kongsberg multibeam vendor format
0007_20140312_025150_KM710.all.mb58.gz 49.59MB Kongsberg multibeam vendor format
0008_20140312_032149_KM710.all.mb58.gz 66.83MB Kongsberg multibeam vendor format
0009_20140312_035150_KM710.all.mb58.gz 28.17MB Kongsberg multibeam vendor format
0010_20140312_042149_KM710.all.mb58.gz 11.60MB Kongsberg multibeam vendor format
0011_20140312_045151_KM710.all.mb58.gz 16.82MB Kongsberg multibeam vendor format
0012_20140312_052149_KM710.all.mb58.gz 10.01MB Kongsberg multibeam vendor format
0013_20140312_055150_KM710.all.mb58.gz 9.39MB Kongsberg multibeam vendor format
0014_20140312_062149_KM710.all.mb58.gz 9.31MB Kongsberg multibeam vendor format
0015_20140312_065149_KM710.all.mb58.gz 10.70MB Kongsberg multibeam vendor format
0016_20140312_072150_KM710.all.mb58.gz 35.47MB Kongsberg multibeam vendor format
0017_20140312_075148_KM710.all.mb58.gz 67.10MB Kongsberg multibeam vendor format
0018_20140312_082149_KM710.all.mb58.gz 25.38MB Kongsberg multibeam vendor format
0019_20140312_085150_KM710.all.mb58.gz 13.99MB Kongsberg multibeam vendor format
0020_20140312_092149_KM710.all.mb58.gz 12.64MB Kongsberg multibeam vendor format
0021_20140312_095152_KM710.all.mb58.gz 28.00MB Kongsberg multibeam vendor format
0022_20140312_102149_KM710.all.mb58.gz 21.79MB Kongsberg multibeam vendor format
0023_20140312_105149_KM710.all.mb58.gz 9.30MB Kongsberg multibeam vendor format
0024_20140312_112149_KM710.all.mb58.gz 9.14MB Kongsberg multibeam vendor format
0025_20140319_015918_KM710.all.mb58.gz 63.87MB Kongsberg multibeam vendor format
0026_20140319_022919_KM710.all.mb58.gz 8.90MB Kongsberg multibeam vendor format
0027_20140319_025919_KM710.all.mb58.gz 9.63MB Kongsberg multibeam vendor format
0028_20140319_032919_KM710.all.mb58.gz 10.43MB Kongsberg multibeam vendor format
0029_20140319_035919_KM710.all.mb58.gz 18.42MB Kongsberg multibeam vendor format
0030_20140319_042918_KM710.all.mb58.gz 47.49MB Kongsberg multibeam vendor format
0031_20140319_045916_KM710.all.mb58.gz 31.28MB Kongsberg multibeam vendor format
0032_20140319_052917_KM710.all.mb58.gz 11.85MB Kongsberg multibeam vendor format
0033_20140319_055918_KM710.all.mb58.gz 1.38MB Kongsberg multibeam vendor format
0034_20140324_190331_KM710.all.mb58.gz 0.57MB Kongsberg multibeam vendor format
0035_20140324_190528_KM710.all.mb58.gz 28.93MB Kongsberg multibeam vendor format
0036_20140324_193529_KM710.all.mb58.gz 174.16MB Kongsberg multibeam vendor format
0037_20140324_200528_KM710.all.mb58.gz 63.42MB Kongsberg multibeam vendor format
0038_20140324_203525_KM710.all.mb58.gz 22.60MB Kongsberg multibeam vendor format
0039_20140324_210525_KM710.all.mb58.gz 22.39MB Kongsberg multibeam vendor format
0040_20140324_213524_KM710.all.mb58.gz 21.50MB Kongsberg multibeam vendor format
0041_20140324_220526_KM710.all.mb58.gz 22.20MB Kongsberg multibeam vendor format
0042_20140324_223526_KM710.all.mb58.gz 20.03MB Kongsberg multibeam vendor format
0043_20140324_230525_KM710.all.mb58.gz 9.04MB Kongsberg multibeam vendor format
9999.all.mb58.gz 0.81MB Kongsberg multibeam vendor format

Metadata Files: 3

Files File Size Description
KM1409_Multibeam.xml NGDC created ISO metadata
em122_bag_info.tar.gz 5.9KB Additional cruise information
em710_bag_info.tar.gz 2.9KB Additional cruise information